sat.trackr.live / text

‹ back to catalog

STARLINK-30160

NORAD 57441 · 2023-105M

PAYLOAD ACTIVE UNKNOWN

§ Identity

Operator
Country
US
Launch date
2023-07-24
Launch site
AFETR
Launch vehicle
Mass (kg)
RCS (m²)

Purposes: comms

External: N2YO · Heavens-Above · Gunter

§ Orbital elements

Epoch: 2026-05-25T04:50:04.765056Z

Period
94.27 min
Inclination
43.0046°
Eccentricity
0.0002095
Mean motion
15.27576903 rev/d
Perigee alt
481.6 km
Apogee alt
484.5 km
Semi-major
6,861.2 km
B*
5.2263e-5
RAAN
194.5423°
Arg perigee
283.5940°
Mean anomaly
76.4678°
Rev number
15,704

§ Raw data

STARLINK-301601 57441U 23105M   26145.20144404  .00001176  00000+0  52263-4 0  99952 57441  43.0046 194.5423 0002095 283.5940  76.4678 15.27576903157045

JSON: /api/v1/satellites/57441 · /tle

For live sub-satellite position, see the globe view (requires WebGL).

§ Visibility from observer

Set your observer location to see the next 7 days of passes ≥ 10°. The values pass through the URL so the page stays shareable.

No JS? Fill the form by hand. The geolocation button needs JavaScript.